User: anonymous   Login
Location: Unspecified
(0.0000°N, 0.0000°E)
Time: 02:10:55
(UTC+00:00)
Language:

STARLINK-5970 - Orbit

View from above orbital plane
View from above orbital plane
View from above satellite
View from above satellite

Ground track
Ground track

The orbit is defined by the following mean orbital elements,

1 56450U          26145.45506194 +.00000000 +00000-0 -94518-4 0 00007
2 56450  69.9991 310.9479 0002642 271.0434  89.0423 14.98331027    07
Epoch (UTC): 25 May 2026 10:55:17
Eccentricity: 0.0002642
inclination: 69.9991°
perigee height: 570 km
apogee height: 574 km
right ascension of ascending node: 310.9479°
argument of perigee: 271.0434°
revolutions per day: 14.98331027
mean anomaly at epoch: 89.0423°

The dashed part of the orbit path shows where the satellite is in the earth's shadow,  

DLR